EW3994 Weather Reports


Display with metric or nautical units.
time (UTC)temp
F
wind
direction
speed
MPH
gust
MPH
rain 1hr
in
rain 24hr
in
rain mn
in
humidity
%
barometer
mb
20260903112446 57 164 1.0 2.0 0.00 0.02 0.02 53 1020.8
20260903111546 57 164 1.0 4.0 0.00 0.02 0.02 53 1020.7
20260903110646 57 166 1.0 4.0 0.00 0.02 0.02 53 1020.7
20260903105747 57 192 1.0 3.0 0.00 0.02 0.02 53 1020.6
20260903104847 57 192 2.0 3.0 0.00 0.02 0.02 53 1020.4
20260903103947 57 201 2.0 3.0 0.00 0.02 0.02 53 1020.5
20260903103047 57 196 1.0 4.0 0.00 0.02 0.02 53 1020.3
20260903101246 58 210 3.0 6.0 0.00 0.02 0.02 53 1020.0
20260903095446 58 216 2.0 4.0 0.00 0.02 0.02 52 1019.8
20260903094546 58 194 2.0 5.0 0.00 0.02 0.02 53 1019.8
20260903093646 58 205 3.0 5.0 0.00 0.02 0.02 52 1019.8
20260903092746 58 232 3.0 5.0 0.00 0.02 0.02 53 1019.9
20260903091846 58 227 2.0 4.0 0.00 0.02 0.02 52 1019.7
20260903090946 58 250 2.0 6.0 0.00 0.02 0.02 52 1019.7
20260903085146 58 244 2.0 5.0 0.00 0.02 0.02 51 1019.5
20260903084246 58 254 3.0 6.0 0.00 0.02 0.02 51 1019.5
20260903083346 58 250 2.0 4.0 0.00 0.02 0.02 51 1019.4
20260903081546 59 243 3.0 6.0 0.00 0.02 0.02 51 1019.2
20260903080646 59 249 5.0 8.0 0.00 0.02 0.02 50 1019.2
20260903075746 59 236 5.0 9.0 0.00 0.02 0.02 50 1019.0
20260903074846 60 230 6.0 10.0 0.00 0.02 0.02 49 1019.0
20260903073946 60 210 4.0 9.0 0.00 0.02 0.02 50 1018.9
20260903073046 60 199 4.0 11.0 0.00 0.02 0.02 49 1018.8
20260903072146 60 202 5.0 11.0 0.00 0.02 0.02 50 1018.8
20260903071246 60 205 6.0 10.0 0.01 0.02 0.02 51 1018.9
20260903065446 61 200 6.0 12.0 0.01 0.02 0.02 49 1018.8
20260903064546 61 203 6.0 11.0 0.01 0.02 0.02 49 1018.7
20260903063646 61 247 6.0 11.0 0.01 0.02 0.02 49 1018.7
20260903062746 61 242 6.0 12.0 0.01 0.02 0.02 48 1018.6
20260903061846 62 245 6.0 11.0 0.00 0.02 0.02 48 1018.6
20260903060946 62 261 7.0 13.0 0.00 0.02 0.02 46 1018.6
20260903060046 62 239 8.0 14.0 0.00 0.02 0.02 47 1018.6
20260903055146 62 228 9.0 14.0 0.00 0.02 0.02 47 1018.7
20260903054247 62 241 9.0 14.0 0.00 0.02 0.02 48 1018.7
20260903050646 62 242 10.0 18.0 0.00 0.02 0.02 50 1018.5
20260903045746 62 242 8.0 15.0 0.00 0.02 0.02 51 1018.3
20260903044846 63 237 8.0 13.0 0.00 0.02 0.02 51 1018.2
20260903043946 61 253 9.0 15.0 0.00 0.02 0.02 54 1018.2
20260903043046 61 238 9.0 14.0 0.00 0.02 0.02 53 1018.1
20260903042145 62 246 8.0 14.0 0.00 0.02 0.02 53 1018.1
20260903041245 62 239 7.0 13.0 0.00 0.02 0.02 54 1018.0
20260903040345 62 241 7.0 13.0 0.00 0.02 0.02 52 1018.1
20260903035446 62 240 8.0 14.0 0.00 0.02 0.02 54 1018.1
20260903034546 62 236 8.0 15.0 0.00 0.02 0.02 55 1018.0
20260903033646 62 255 9.0 15.0 0.00 0.02 0.02 55 1018.1
20260903032746 62 243 7.0 13.0 0.00 0.02 0.02 55 1018.1
20260903031845 61 251 8.0 14.0 0.00 0.02 0.02 57 1018.2
20260903030946 62 240 8.0 14.0 0.00 0.02 0.02 56 1018.1
20260903030046 63 226 7.0 13.0 0.00 0.02 0.02 57 1018.1
20260903025145 61 216 7.0 13.0 0.00 0.02 0.02 58 1018.1
20260903024245 61 220 7.0 12.0 0.00 0.02 0.02 58 1018.2
20260903023345 60 228 8.0 17.0 0.00 0.02 0.02 59 1018.3
20260903022445 61 229 8.0 17.0 0.01 0.02 0.02 59 1018.2
20260903021546 62 232 6.0 12.0 0.02 0.02 0.02 62 1018.2
20260903020645 60 245 6.0 11.0 0.02 0.02 0.02 63 1018.2
20260903015745 60 245 6.0 12.0 0.02 0.02 0.02 64 1018.3
20260903014845 60 253 5.0 12.0 0.02 0.02 0.02 65 1018.2
20260903013945 59 253 6.0 12.0 0.02 0.02 0.02 65 1018.2
20260903013045 58 263 8.0 14.0 0.02 0.02 0.02 64 1018.2
20260903010345 60 287 10.0 18.0 0.00 0.00 0.00 60 1018.0
20260903005445 59 285 11.0 19.0 0.00 0.00 0.00 60 1018.0
20260903003645 59 279 11.0 18.0 0.00 0.00 0.00 61 1017.9
20260903002745 59 283 9.0 16.0 0.00 0.00 0.00 61 1018.0
20260903001845 59 289 9.0 15.0 0.00 0.00 0.00 61 1018.0
20260903000945 58 290 8.0 14.0 0.00 0.00 0.00 62 1018.0
20260903000045 58 290 9.0 16.0 0.00 0.00 0.00 61 1018.0
20260902235145 58 287 8.0 16.0 0.00 0.00 0.00 61 1018.0
20260902234245 58 293 8.0 13.0 0.00 0.00 0.00 62 1017.8
20260902233345 58 287 9.0 15.0 0.00 0.00 0.00 62 1017.7
20260902232445 58 292 8.0 20.0 0.00 0.00 0.00 62 1017.8
20260902231546 57 298 8.0 14.0 0.00 0.00 0.00 63 1017.7
20260902230645 57 296 7.0 14.0 0.00 0.00 0.00 63 1017.5
20260902225745 57 299 6.0 14.0 0.00 0.00 0.00 63 1017.5
20260902224845 56 320 4.0 9.0 0.00 0.00 0.00 63 1017.5
20260902223945 55 330 4.0 9.0 0.00 0.00 0.00 64 1017.3
20260902222145 54 344 3.0 6.0 0.00 0.00 0.00 64 1016.9
20260902221246 54 341 2.0 5.0 0.00 0.00 0.00 63 1016.8
20260902220345 55 351 3.0 6.0 0.00 0.00 0.00 63 1016.6
20260902215445 56 302 4.0 9.0 0.00 0.00 0.00 63 1016.6
20260902212745 55 296 5.0 11.0 0.00 0.00 0.00 64 1016.3
20260902211845 55 297 5.0 10.0 0.00 0.00 0.00 64 1016.3
20260902210944 55 292 5.0 12.0 0.00 0.00 0.00 64 1016.0
20260902210044 55 298 7.0 12.0 0.00 0.00 0.00 64 1016.0
20260902205145 55 291 6.0 13.0 0.00 0.00 0.00 64 1016.0
20260902204245 55 299 6.0 11.0 0.00 0.00 0.00 64 1015.8
20260902202444 55 295 8.0 14.0 0.00 0.00 0.00 64 1015.7
20260902200644 55 291 8.0 17.0 0.00 0.00 0.00 63 1015.6
20260902195745 55 297 7.0 13.0 0.00 0.00 0.00 63 1015.4
20260902194846 55 291 7.0 12.0 0.00 0.00 0.00 63 1015.4
20260902193944 55 291 7.0 14.0 0.00 0.00 0.00 63 1015.2
20260902193044 55 288 8.0 13.0 0.00 0.00 0.00 62 1015.2
20260902192144 55 284 7.0 13.0 0.00 0.00 0.00 62 1015.1
20260902191244 55 289 7.0 14.0 0.00 0.00 0.00 62 1015.0
20260902190344 55 298 7.0 13.0 0.00 0.00 0.00 62 1014.9
20260902184544 55 283 7.0 14.0 0.00 0.00 0.00 61 1014.8
20260902183644 56 285 8.0 13.0 0.00 0.00 0.00 61 1014.8
20260902181844 56 289 9.0 15.0 0.00 0.00 0.00 60 1014.8
20260902180044 56 290 10.0 16.0 0.00 0.00 0.00 60 1014.7
20260902175147 56 288 8.0 16.0 0.00 0.00 0.00 60 1014.8
20260902174244 56 288 9.0 14.0 0.00 0.00 0.00 59 1014.7
20260902173344 55 294 8.0 14.0 0.00 0.00 0.00 59 1014.8
20260902172444 56 288 8.0 15.0 0.00 0.00 0.00 58 1014.8
20260902171544 56 288 7.0 14.0 0.00 0.00 0.00 58 1014.9
20260902170644 56 289 7.0 14.0 0.00 0.00 0.00 57 1014.9
20260902165744 56 295 8.0 15.0 0.00 0.00 0.00 57 1015.0
20260902163944 55 287 8.0 15.0 0.00 0.00 0.00 56 1015.1
20260902163044 55 290 8.0 12.0 0.00 0.00 0.00 56 1015.2
20260902162144 55 287 9.0 14.0 0.00 0.00 0.00 57 1015.2
20260902161244 55 283 8.0 15.0 0.00 0.00 0.00 57 1015.3
20260902160344 55 285 5.0 10.0 0.00 0.00 0.00 57 1015.4
20260902154544 55 282 8.0 14.0 0.00 0.00 0.00 56 1015.4
20260902153644 55 282 11.0 24.0 0.00 0.00 0.00 56 1015.3
20260902151844 55 284 11.0 20.0 0.00 0.00 0.00 57 1015.6
20260902150043 55 294 8.0 15.0 0.00 0.00 0.00 58 1015.5
20260902145144 55 293 7.0 15.0 0.00 0.00 0.00 58 1015.4
20260902142444 54 279 7.0 12.0 0.00 0.00 0.00 59 1015.6
20260902141543 54 275 7.0 15.0 0.00 0.00 0.00 59 1015.6
20260902140644 54 275 8.0 15.0 0.00 0.00 0.00 59 1015.7
20260902135744 54 274 8.0 14.0 0.00 0.00 0.00 60 1015.7
20260902134843 54 273 8.0 12.0 0.00 0.00 0.00 60 1015.8
20260902133945 54 277 7.0 10.0 0.00 0.00 0.00 60 1015.9
20260902133043 54 278 7.0 11.0 0.00 0.00 0.00 61 1015.8
20260902132144 54 279 7.0 13.0 0.00 0.00 0.00 61 1015.9
20260902131243 54 277 6.0 12.0 0.00 0.00 0.00 61 1016.0
20260902130343 54 276 5.0 11.0 0.00 0.00 0.00 60 1015.9
20260902125444 54 286 3.0 7.0 0.00 0.00 0.00 60 1015.9
20260902124544 54 281 3.0 6.0 0.00 0.00 0.00 60 1016.0
20260902123644 54 282 3.0 7.0 0.00 0.00 0.00 60 1016.1
20260902121843 54 284 2.0 4.0 0.00 0.00 0.00 58 1016.2
20260902120943 54 284 3.0 6.0 0.00 0.00 0.00 58 1016.2
20260902120043 54 281 2.0 6.0 0.00 0.00 0.00 58 1016.3
20260902115143 54 270 3.0 5.0 0.00 0.00 0.00 57 1016.2
20260902114243 55 257 3.0 7.0 0.00 0.00 0.00 57 1016.0
20260902113343 55 244 4.0 8.0 0.00 0.00 0.00 57 1015.9